OE3MAA Weather Reports


time (UTC)temp
F
wind
direction
speed
knots
gust
knots
rain 1hr
in
rain 24hr
in
rain mn
in
humidity
%
barometer
mb
20260506001017 58 270 2.6 5.2 0.00 0.00 0.00 76 1005.8
20260506000016 57 270 2.6 5.2 0.00 0.00 0.00 77 1005.6
20260505234016 56 338 1.7 2.6 0.00 0.00 0.00 77 1005.4
20260505233016 56 315 0.9 3.5 0.00 0.00 0.00 77 1005.4
20260505232016 56 315 0.9 1.7 0.00 0.00 0.00 77 1005.3
20260505231016 55 315 1.7 3.5 0.00 0.00 0.00 78 1005.2
20260505230017 55 293 1.7 2.6 0.00 0.00 0.00 77 1005.1
20260505225016 55 293 1.7 3.5 0.00 0.00 0.00 76 1004.9
20260505224016 55 293 1.7 3.5 0.00 0.00 0.00 75 1004.7
20260505223016 55 248 0.9 2.6 0.00 0.00 0.00 74 1004.5
20260505222016 55 338 0.9 2.6 0.00 0.00 0.00 73 1004.3
20260505221016 55 338 1.7 3.5 0.00 0.00 0.00 72 1004.3
20260505220016 55 338 0.9 2.6 0.00 0.00 0.00 71 1004.3
20260505215016 56 0 0.9 2.6 0.00 0.00 0.00 70 1004.2
20260505214016 56 338 1.7 2.6 0.00 0.00 0.00 68 1004.1
20260505213016 58 0 0.9 2.6 0.00 0.00 0.00 66 1004.1
20260505212038 59 68 0.9 2.6 0.00 0.00 0.00 64 1003.9
20260505211019 60 90 1.7 4.3 0.00 0.00 0.00 63 1003.9
20260505210016 60 90 1.7 4.3 0.00 0.00 0.00 62 1003.9
20260505205016 60 90 2.6 5.2 0.00 0.00 0.00 61 1003.7
20260505203056 61 90 1.7 5.2 0.00 0.00 0.00 59 1003.6
20260505202016 62 135 2.6 7.8 0.00 0.00 0.00 58 1003.4
20260505201016 62 113 3.5 6.1 0.00 0.00 0.00 57 1003.4
20260505200016 63 113 4.3 9.6 0.00 0.00 0.00 56 1003.3
20260505195016 63 113 4.3 7.0 0.00 0.00 0.00 55 1003.3
20260505194016 64 135 5.2 8.7 0.00 0.00 0.00 54 1003.2
20260505193018 64 113 6.1 11.3 0.00 0.00 0.00 53 1003.3
20260505192016 65 135 5.2 11.3 0.00 0.00 0.00 53 1003.2
20260505191036 65 113 6.1 10.4 0.00 0.00 0.00 52 1003.1
20260505190036 66 135 6.1 12.2 0.00 0.00 0.00 51 1003.2
20260505185016 66 135 6.1 12.2 0.00 0.00 0.00 50 1003.1
20260505184036 67 135 6.1 9.6 0.00 0.00 0.00 49 1003.2
20260505183016 67 135 6.1 10.4 0.00 0.00 0.00 48 1003.1
20260505181017 69 135 7.8 15.6 0.00 0.00 0.00 46 1003.1
20260505180016 70 135 7.0 11.3 0.00 0.00 0.00 45 1002.9
20260505175016 70 135 10.4 18.2 0.00 0.00 0.00 44 1003.0
20260505174016 71 135 8.7 16.5 0.00 0.00 0.00 44 1002.9
20260505173016 72 135 10.4 17.4 0.00 0.00 0.00 43 1002.9
20260505172016 72 135 10.4 17.4 0.00 0.00 0.00 43 1002.9
20260505171036 72 135 8.7 13.9 0.00 0.00 0.00 43 1003.1
20260505170016 73 135 8.7 16.5 0.00 0.00 0.00 43 1003.1
20260505164016 74 135 9.6 18.2 0.00 0.00 0.00 42 1003.0
20260505163016 74 135 10.4 16.5 0.00 0.00 0.00 42 1002.9
20260505162016 74 135 12.2 18.2 0.00 0.00 0.00 42 1003.0
20260505161018 74 158 9.6 16.5 0.00 0.00 0.00 41 1003.0
20260505153016 77 135 13.9 23.5 0.00 0.00 0.00 38 1003.1
20260505152016 78 158 10.4 19.1 0.00 0.00 0.00 37 1003.1
20260505125016 82 158 11.3 20.0 0.00 0.00 0.00 28 1004.7
20260505124016 81 158 11.3 20.9 0.00 0.00 0.00 27 1004.8
20260505123016 81 135 10.4 18.2 0.00 0.00 0.00 28 1004.9
20260505122017 81 135 11.3 17.4 0.00 0.00 0.00 28 1005.1
20260505121016 81 135 10.4 17.4 0.00 0.00 0.00 31 1005.2
20260505120038 80 135 11.3 20.9 0.00 0.00 0.00 32 1005.3
20260505115016 79 135 10.4 19.1 0.00 0.00 0.00 32 1005.5
20260505114016 79 113 10.4 18.2 0.00 0.00 0.00 36 1005.7
20260505113036 78 135 9.6 18.2 0.00 0.00 0.00 39 1005.7
20260505112016 78 135 7.8 14.8 0.00 0.00 0.00 40 1006.0
20260505111016 78 135 8.7 14.8 0.00 0.00 0.00 42 1006.3
20260505102018 72 135 7.8 12.2 0.00 0.00 0.00 47 1007.0
20260505101016 72 135 7.8 11.3 0.00 0.00 0.00 47 1007.1
20260505100016 72 135 7.0 13.0 0.00 0.00 0.00 46 1007.3
20260505095016 71 135 6.1 11.3 0.00 0.00 0.00 48 1007.5
20260505094018 70 135 7.0 12.2 0.00 0.00 0.00 50 1007.6
20260505093038 69 113 7.8 15.6 0.00 0.00 0.00 48 1007.7
20260505092016 70 135 7.0 12.2 0.00 0.00 0.00 49 1007.9
20260505091017 69 135 6.1 10.4 0.00 0.00 0.00 49 1007.9
20260505090016 69 113 7.8 13.9 0.00 0.00 0.00 50 1007.8
20260505085016 68 113 7.0 11.3 0.00 0.00 0.00 53 1008.0
20260505084016 68 135 5.2 12.2 0.00 0.00 0.00 52 1008.1
20260505083016 67 113 5.2 10.4 0.00 0.00 0.00 52 1008.1
20260505081018 65 113 5.2 10.4 0.00 0.00 0.00 56 1008.0
20260505080016 64 135 4.3 11.3 0.00 0.00 0.00 56 1008.1
20260505075018 64 113 4.3 7.8 0.00 0.00 0.00 59 1008.2
20260505074037 64 113 4.3 7.8 0.00 0.00 0.00 58 1008.3
20260505073018 63 90 4.3 9.6 0.00 0.00 0.00 60 1008.2
20260505072018 61 135 4.3 7.8 0.00 0.00 0.00 63 1008.4
20260505071018 60 113 2.6 7.0 0.00 0.00 0.00 63 1008.4
20260505070018 59 135 4.3 7.8 0.00 0.00 0.00 64 1008.4
20260505064016 59 135 3.5 6.1 0.00 0.00 0.00 64 1008.5
20260505063016 59 135 3.5 6.1 0.00 0.00 0.00 64 1008.4
20260505062017 58 113 3.5 7.8 0.00 0.00 0.00 64 1008.4
20260505061018 58 113 4.3 7.8 0.00 0.00 0.00 65 1008.4
20260505060018 57 90 3.5 7.0 0.00 0.00 0.00 65 1008.4
20260505055016 57 135 2.6 6.1 0.00 0.00 0.00 66 1008.4
20260505054037 56 90 3.5 6.1 0.00 0.00 0.00 68 1008.3
20260505052017 53 68 2.6 6.1 0.00 0.00 0.00 68 1008.3
20260505051017 53 90 3.5 6.1 0.00 0.00 0.00 69 1008.3
20260505041036 52 68 2.6 6.1 0.00 0.00 0.00 69 1008.1
20260505040016 52 90 2.6 5.2 0.00 0.00 0.00 69 1008.1
20260505035018 52 68 2.6 4.3 0.00 0.00 0.00 69 1008.1
20260505034037 51 68 1.7 2.6 0.00 0.00 0.00 70 1008.1
20260505033018 51 90 1.7 4.3 0.00 0.00 0.00 69 1008.1
20260505032017 52 68 0.9 2.6 0.00 0.00 0.00 69 1008.2
20260505031016 52 68 1.7 5.2 0.00 0.00 0.00 70 1008.2
20260505030036 51 68 1.7 5.2 0.00 0.00 0.00 71 1008.1
20260505025016 50 68 0.9 2.6 0.00 0.00 0.00 73 1008.2
20260505024016 49 0.0 0.0 0.00 0.00 0.00 75 1008.2
20260505023016 48 0.0 0.0 0.00 0.00 0.00 75 1008.2
20260505022018 49 0.0 0.0 0.00 0.00 0.00 73 1008.4
20260505021138 50 0.0 0.0 0.00 0.00 0.00 71 1008.4
20260505020016 52 0.0 0.0 0.00 0.00 0.00 68 1008.5
20260505015017 53 68 0.9 4.3 0.00 0.00 0.00 66 1008.5
20260505014016 54 68 0.9 1.7 0.00 0.00 0.00 65 1008.6
20260505013038 55 90 1.7 3.5 0.00 0.00 0.00 63 1008.5
20260505011016 56 90 2.6 7.0 0.00 0.00 0.00 61 1008.6
20260505010017 56 68 1.7 4.3 0.00 0.00 0.00 61 1008.7
20260505005018 57 68 2.6 6.1 0.00 0.00 0.00 60 1008.7
20260505004016 57 68 2.6 5.2 0.00 0.00 0.00 60 1008.7
20260505003037 57 45 1.7 3.5 0.00 0.00 0.00 60 1008.9